When you browse on this site, cookies collect data to enhance your experience and personalize the content and advertising you see.
Visit our Privacy Policy to learn more. By continuing to use the site, you agree to this use of cookies and data.
  • In Deutschland
  • Länderverzeichnis
  • Für 7 Tage
  • Wassertemperatur
  • Wetterkarte
  • Widgets
  • user-avatar
    Anmelden

    Stündliche Wetter Hannover

    Heute, 15 Oktober, Dienstag

    Zeit Temperatur Niederschläge Wind Luftdruck Luftfeuchtigkeit
    00:00 +17°C° 0 mm 2 m/S 751 mmHg 83%
    01:00 +16°C° 0 mm 2 m/S 751 mmHg 82%
    02:00 +16°C° 0 mm 2 m/S 751 mmHg 82%
    03:00 +16°C° 0 mm 2 m/S 750 mmHg 82%
    04:00 +16°C° 0 mm 2 m/S 750 mmHg 82%
    05:00 +15°C° 0 mm 2 m/S 750 mmHg 84%
    06:00 +15°C° 0 mm 2 m/S 749 mmHg 85%
    07:00 +15°C° 0 mm 2 m/S 749 mmHg 87%
    08:00 +16°C° 0 mm 2 m/S 749 mmHg 82%
    09:00 +18°C° 0 mm 2 m/S 749 mmHg 78%
    10:00 +20°C° 0 mm 1 m/S 749 mmHg 73%
    11:00 +21°C° 0 mm 2 m/S 749 mmHg 69%
    12:00 +23°C° 0 mm 2 m/S 749 mmHg 64%
    13:00 +24°C° 0 mm 2 m/S 749 mmHg 59%
    14:00 +24°C° 0 mm 2 m/S 748 mmHg 62%
    15:00 +24°C° 0 mm 1 m/S 748 mmHg 64%
    16:00 +23°C° 0 mm 1 m/S 748 mmHg 67%
    17:00 +22°C° 0 mm 1 m/S 748 mmHg 73%
    18:00 +19°C° 0 mm 2 m/S 748 mmHg 79%
    19:00 +18°C° 0 mm 2 m/S 748 mmHg 84%
    20:00 +17°C° 0.4 mm 2 m/S 748 mmHg 87%
    21:00 +18°C° 0.4 mm 1 m/S 748 mmHg 90%
    22:00 +16°C° 0.4 mm 1 m/S 748 mmHg 93%
    23:00 +14°C° 4.5 mm 3 m/S 748 mmHg 92%

    Morgen, 16 Oktober, Mittwoch

    Zeit Temperatur Niederschläge Wind Luftdruck Luftfeuchtigkeit
    00:00 +14°C° 4.5 mm 5 m/S 749 mmHg 91%
    01:00 +12°C° 4.5 mm 7 m/S 749 mmHg 91%
    02:00 +12°C° 1.6 mm 7 m/S 749 mmHg 91%
    03:00 +11°C° 1.6 mm 8 m/S 749 mmHg 91%
    04:00 +11°C° 1.6 mm 8 m/S 749 mmHg 91%
    05:00 +11°C° 1.9 mm 7 m/S 750 mmHg 91%
    06:00 +10°C° 1.9 mm 6 m/S 750 mmHg 91%
    07:00 +10°C° 1.9 mm 5 m/S 750 mmHg 91%
    08:00 +10°C° 0.9 mm 5 m/S 750 mmHg 90%
    09:00 +10°C° 0.9 mm 6 m/S 750 mmHg 89%
    10:00 +10°C° 0.9 mm 6 m/S 751 mmHg 88%
    11:00 +11°C° 0.1 mm 6 m/S 751 mmHg 84%
    12:00 +12°C° 0.1 mm 7 m/S 751 mmHg 80%
    13:00 +14°C° 0.1 mm 7 m/S 751 mmHg 76%
    14:00 +14°C° 0 mm 6 m/S 751 mmHg 76%
    15:00 +14°C° 0 mm 5 m/S 751 mmHg 76%
    16:00 +14°C° 0 mm 5 m/S 751 mmHg 76%
    17:00 +13°C° 0 mm 4 m/S 752 mmHg 78%
    18:00 +13°C° 0 mm 4 m/S 752 mmHg 81%
    19:00 +12°C° 0 mm 4 m/S 752 mmHg 84%
    20:00 +13°C° 0 mm 4 m/S 752 mmHg 83%
    21:00 +13°C° 0 mm 4 m/S 752 mmHg 83%
    22:00 +13°C° 0 mm 4 m/S 753 mmHg 82%
    23:00 +13°C° 0 mm 3 m/S 753 mmHg 81%

    übermorgen, 17 Oktober, Donnerstag

    Zeit Temperatur Niederschläge Wind Luftdruck Luftfeuchtigkeit
    00:00 +13°C° 0 mm 3 m/S 753 mmHg 80%
    01:00 +13°C° 0 mm 3 m/S 753 mmHg 78%
    02:00 +13°C° 0 mm 3 m/S 752 mmHg 78%
    03:00 +13°C° 0 mm 4 m/S 752 mmHg 78%
    04:00 +13°C° 0 mm 4 m/S 752 mmHg 79%
    05:00 +13°C° 0.3 mm 4 m/S 752 mmHg 81%
    06:00 +13°C° 0.3 mm 5 m/S 752 mmHg 84%
    07:00 +13°C° 0.3 mm 5 m/S 752 mmHg 87%
    08:00 +13°C° 0.2 mm 5 m/S 753 mmHg 87%
    09:00 +13°C° 0.2 mm 4 m/S 753 mmHg 86%
    10:00 +13°C° 0.2 mm 4 m/S 753 mmHg 86%
    11:00 +13°C° 0.1 mm 4 m/S 753 mmHg 86%
    12:00 +14°C° 0.1 mm 4 m/S 754 mmHg 85%
    13:00 +14°C° 0.1 mm 4 m/S 754 mmHg 85%
    14:00 +14°C° 0.1 mm 4 m/S 754 mmHg 84%
    15:00 +14°C° 0.1 mm 4 m/S 754 mmHg 83%
    16:00 +16°C° 0.1 mm 3 m/S 754 mmHg 82%
    17:00 +14°C° 0 mm 3 m/S 754 mmHg 84%
    18:00 +14°C° 0 mm 2 m/S 755 mmHg 85%
    19:00 +14°C° 0 mm 1 m/S 755 mmHg 87%
    20:00 +13°C° 0 mm 1 m/S 755 mmHg 86%
    21:00 +13°C° 0 mm 2 m/S 756 mmHg 85%
    22:00 +13°C° 0 mm 2 m/S 756 mmHg 85%
    23:00 +12°C° 0 mm 2 m/S 756 mmHg 85%

    18 Oktober, Freitag

    Zeit Temperatur Niederschläge Wind Luftdruck Luftfeuchtigkeit
    00:00 +10°C° 0 mm 2 m/S 756 mmHg 85%
    01:00 +9°C° 0 mm 2 m/S 756 mmHg 86%
    02:00 +9°C° 0 mm 2 m/S 756 mmHg 87%
    03:00 +9°C° 0 mm 2 m/S 756 mmHg 88%
    04:00 +9°C° 0 mm 2 m/S 756 mmHg 89%
    05:00 +9°C° 0 mm 2 m/S 756 mmHg 88%
    06:00 +9°C° 0 mm 3 m/S 755 mmHg 88%
    07:00 +10°C° 0 mm 3 m/S 755 mmHg 88%
    08:00 +10°C° 0.3 mm 3 m/S 755 mmHg 88%
    09:00 +11°C° 0.3 mm 3 m/S 755 mmHg 88%
    10:00 +12°C° 0.3 mm 4 m/S 754 mmHg 89%
    11:00 +13°C° 0.1 mm 4 m/S 754 mmHg 85%
    12:00 +15°C° 0.1 mm 5 m/S 754 mmHg 80%
    13:00 +16°C° 0.1 mm 6 m/S 754 mmHg 76%
    14:00 +15°C° 0.3 mm 5 m/S 754 mmHg 78%
    15:00 +15°C° 0.3 mm 4 m/S 754 mmHg 79%
    16:00 +14°C° 0.3 mm 3 m/S 754 mmHg 80%
    17:00 +13°C° 0 mm 3 m/S 754 mmHg 82%
    18:00 +13°C° 0 mm 2 m/S 754 mmHg 84%
    19:00 +12°C° 0 mm 2 m/S 755 mmHg 86%
    20:00 +12°C° 0 mm 2 m/S 755 mmHg 87%
    21:00 +10°C° 0 mm 2 m/S 755 mmHg 87%
    22:00 +10°C° 0 mm 2 m/S 756 mmHg 88%
    23:00 +10°C° 0 mm 2 m/S 755 mmHg 88%

    19 Oktober, Samstag

    Zeit Temperatur Niederschläge Wind Luftdruck Luftfeuchtigkeit
    00:00 +10°C° 0 mm 2 m/S 755 mmHg 89%
    01:00 +9°C° 0 mm 2 m/S 755 mmHg 89%
    02:00 +9°C° 0 mm 2 m/S 755 mmHg 89%
    03:00 +9°C° 0 mm 2 m/S 755 mmHg 89%
    04:00 +9°C° 0 mm 3 m/S 755 mmHg 90%
    05:00 +9°C° 0 mm 3 m/S 755 mmHg 90%
    06:00 +9°C° 0 mm 3 m/S 755 mmHg 90%
    07:00 +9°C° 0 mm 3 m/S 755 mmHg 90%
    08:00 +10°C° 0 mm 3 m/S 754 mmHg 86%
    09:00 +12°C° 0 mm 3 m/S 754 mmHg 82%
    10:00 +13°C° 0 mm 3 m/S 754 mmHg 78%
    11:00 +14°C° 0 mm 4 m/S 754 mmHg 74%
    12:00 +15°C° 0 mm 4 m/S 754 mmHg 71%
    13:00 +17°C° 0 mm 4 m/S 753 mmHg 67%
    14:00 +17°C° 0 mm 3 m/S 753 mmHg 69%
    15:00 +16°C° 0 mm 3 m/S 752 mmHg 71%
    16:00 +16°C° 0 mm 2 m/S 752 mmHg 73%
    17:00 +15°C° 0.1 mm 2 m/S 752 mmHg 76%
    18:00 +14°C° 0.1 mm 2 m/S 752 mmHg 79%
    19:00 +13°C° 0.1 mm 3 m/S 751 mmHg 81%
    20:00 +13°C° 0 mm 3 m/S 751 mmHg 82%
    21:00 +13°C° 0 mm 3 m/S 750 mmHg 83%
    22:00 +13°C° 0 mm 3 m/S 750 mmHg 84%
    23:00 +13°C° 0.2 mm 3 m/S 749 mmHg 85%

    20 Oktober, Sonntag

    Zeit Temperatur Niederschläge Wind Luftdruck Luftfeuchtigkeit
    00:00 +14°C° 0.2 mm 2 m/S 749 mmHg 87%
    01:00 +14°C° 0.2 mm 2 m/S 748 mmHg 89%
    02:00 +14°C° 0.1 mm 2 m/S 748 mmHg 88%
    03:00 +13°C° 0.1 mm 3 m/S 747 mmHg 88%
    04:00 +13°C° 0.1 mm 3 m/S 747 mmHg 87%
    05:00 +12°C° 0.1 mm 3 m/S 747 mmHg 88%
    06:00 +12°C° 0.1 mm 3 m/S 747 mmHg 89%
    07:00 +12°C° 0.1 mm 3 m/S 748 mmHg 90%
    08:00 +12°C° 0 mm 4 m/S 748 mmHg 87%
    09:00 +13°C° 0 mm 5 m/S 748 mmHg 83%
    10:00 +14°C° 0 mm 6 m/S 748 mmHg 79%
    11:00 +14°C° 0 mm 5 m/S 748 mmHg 77%
    12:00 +14°C° 0 mm 5 m/S 749 mmHg 74%
    13:00 +14°C° 0 mm 5 m/S 749 mmHg 71%
    14:00 +14°C° 0.1 mm 4 m/S 749 mmHg 72%
    15:00 +14°C° 0.1 mm 3 m/S 749 mmHg 73%
    16:00 +13°C° 0.1 mm 3 m/S 749 mmHg 74%
    17:00 +12°C° 0 mm 3 m/S 750 mmHg 77%
    18:00 +11°C° 0 mm 3 m/S 750 mmHg 80%
    19:00 +10°C° 0 mm 2 m/S 751 mmHg 83%
    20:00 +10°C° 0 mm 3 m/S 751 mmHg 83%
    21:00 +10°C° 0 mm 3 m/S 752 mmHg 82%
    22:00 +9°C° 0 mm 3 m/S 752 mmHg 82%
    23:00 +9°C° 0 mm 3 m/S 752 mmHg 84%
    Mehr zeigen